sat.trackr.live / text

‹ back to catalog

STARLINK-5049

NORAD 57246 · 2023-094AE

PAYLOAD ACTIVE UNKNOWN

§ Identity

Operator
Country
US
Launch date
2023-07-07
Launch site
AFWTR
Launch vehicle
Mass (kg)
RCS (m²)

Purposes: comms

External: N2YO · Heavens-Above · Gunter

§ Orbital elements

Epoch: 2026-05-24T20:29:50.479872Z

Period
94.27 min
Inclination
43.0033°
Eccentricity
0.0001497
Mean motion
15.27581861 rev/d
Perigee alt
482.0 km
Apogee alt
484.1 km
Semi-major
6,861.2 km
B*
3.5752e-5
RAAN
309.2981°
Arg perigee
263.9219°
Mean anomaly
96.1462°
Rev number
15,889

§ Raw data

STARLINK-50491 57246U 23094AE  26144.85405648  .00000722  00000+0  35752-4 0  99952 57246  43.0033 309.2981 0001497 263.9219  96.1462 15.27581861158897

JSON: /api/v1/satellites/57246 · /tle

For live sub-satellite position, see the globe view (requires WebGL).

§ Visibility from observer

Set your observer location to see the next 7 days of passes ≥ 10°. The values pass through the URL so the page stays shareable.

No JS? Fill the form by hand. The geolocation button needs JavaScript.